Date String (YYYY-MM-DD hh:mm:ss) UTC,Instrument flags,Ambient pressure (hPa),Sample flow (lpm),Bypass flow (lpm),Sample temperature (°C),Ambient temperature (°C),ASC tube jacket temperature (°C),LED temperature (°C),Box temperature (°C),Sample RH (%),Span deviation,Mass concentration (μg/m³),Mass concentration (μg/m³),Mass concentration (μg/m³)
DateTimeUTC,F1_M11,P_M11,Q1_M11,Q2_M11,T1_M11,T2_M11,T3_M11,T4_M11,T5_M11,U1_M11,ZSPAN_M11,X0_M11,X2_M11,X1_M11
2022-12-25 16:00:00,,0826.1,5.02,0.00,21.7,20.3,00.0,30.7,23.4,15.1,0000.0,0001.69,0000.40,0000.27
2022-12-25 16:01:00,,0826.2,5.01,0.00,21.7,20.3,00.0,30.6,23.4,15.0,0000.0,0001.83,0000.44,0000.27
2022-12-25 16:02:00,,0826.2,5.00,0.00,21.7,20.4,00.0,30.6,23.5,15.0,0000.0,0001.87,0000.45,0000.28
2022-12-25 16:03:00,,0826.0,4.95,0.00,21.8,21.1,00.0,30.6,23.7,15.0,0000.0,0001.87,0000.46,0000.28
2022-12-25 16:04:00,,0826.1,5.01,0.00,21.9,22.0,00.0,30.6,24.0,14.9,0000.0,0001.89,0000.47,0000.27
2022-12-25 16:05:00,,0826.1,5.03,0.00,22.0,22.0,00.0,30.7,24.0,14.8,0000.0,0001.97,0000.46,0000.27
2022-12-25 16:06:00,,0826.0,4.94,0.00,22.0,21.6,00.0,30.7,23.9,14.8,0000.0,0001.98,0000.46,0000.27
2022-12-25 16:07:00,,0825.8,4.97,0.00,22.0,21.3,00.0,30.7,23.8,14.8,0000.0,0001.98,0000.46,0000.27
2022-12-25 16:08:00,,0825.7,5.03,0.00,22.0,21.1,00.0,30.7,23.8,14.9,0000.0,0002.04,0000.44,0000.27
2022-12-25 16:09:00,,0825.8,5.02,0.00,22.0,21.0,00.0,30.7,23.8,14.8,0000.0,0002.05,0000.44,0000.26
2022-12-25 16:10:00,,0825.9,4.99,0.00,22.0,20.9,00.0,30.8,23.7,15.0,0000.0,0001.02,0000.41,0000.26
2022-12-25 16:11:00,,0826.0,4.96,0.00,22.0,20.8,00.0,30.8,23.7,14.8,0000.0,0000.98,0000.39,0000.26
2022-12-25 16:12:00,,0826.2,5.00,0.00,21.9,20.7,00.0,30.8,23.5,14.9,0000.0,0000.86,0000.36,0000.26
2022-12-25 16:13:00,,0826.0,5.03,0.00,21.9,20.6,00.0,30.8,23.5,15.1,0000.0,0000.81,0000.35,0000.26
2022-12-25 16:14:00,,0826.0,5.02,0.00,21.9,20.5,00.0,30.8,23.6,14.9,0000.0,0000.80,0000.35,0000.27
2022-12-25 16:15:00,,0825.7,4.90,0.00,21.9,20.5,00.0,30.8,23.6,15.0,0000.0,0000.81,0000.35,0000.27
2022-12-25 16:16:00,,0825.8,4.90,0.00,21.9,20.5,00.0,30.8,23.6,15.1,0000.0,0000.81,0000.36,0000.27
2022-12-25 16:17:00,,0825.9,5.02,0.00,21.9,20.4,00.0,30.8,23.6,15.1,0000.0,0000.71,0000.36,0000.27
2022-12-25 16:18:00,,0825.6,5.01,0.00,21.8,20.5,00.0,30.7,23.6,15.2,0000.0,0000.67,0000.35,0000.27
2022-12-25 16:19:00,,0825.6,5.00,0.00,21.9,21.4,00.0,30.7,23.8,15.1,0000.0,0000.85,0000.35,0000.27
2022-12-25 16:20:00,,0825.6,4.96,0.00,22.0,22.3,00.0,30.7,24.1,15.1,0000.0,0001.44,0000.37,0000.27
2022-12-25 16:21:00,,0825.8,5.01,0.00,22.1,22.2,00.0,30.8,24.2,14.8,0000.0,0001.39,0000.38,0000.28
2022-12-25 16:22:00,,0825.9,5.03,0.00,22.1,21.9,00.0,30.8,24.1,14.8,0000.0,0001.39,0000.39,0000.29
2022-12-25 16:23:00,,0825.8,5.01,0.00,22.1,21.5,00.0,30.8,24.0,14.9,0000.0,0001.37,0000.39,0000.29
2022-12-25 16:24:00,,0825.8,4.98,0.00,22.1,21.3,00.0,30.8,23.9,15.0,0000.0,0001.39,0000.39,0000.29
2022-12-25 16:25:00,,0825.8,4.97,0.00,22.1,21.1,00.0,30.8,23.8,15.1,0000.0,0001.45,0000.41,0000.29
2022-12-25 16:26:00,,0825.7,5.01,0.00,22.1,20.9,00.0,30.8,23.8,15.0,0000.0,0001.94,0000.43,0000.30
2022-12-25 16:27:00,,0825.7,5.04,0.00,22.1,20.7,00.0,30.8,23.7,15.1,0000.0,0002.08,0000.43,0000.29
2022-12-25 16:28:00,,0825.7,5.00,0.00,22.0,20.6,00.0,30.8,23.7,15.1,0000.0,0002.09,0000.43,0000.29
2022-12-25 16:29:00,,0825.9,4.99,0.00,22.0,20.5,00.0,30.8,23.6,15.3,0000.0,0002.08,0000.42,0000.29
2022-12-25 16:30:00,,0825.9,4.97,0.00,22.0,21.4,00.0,30.8,23.8,15.2,0000.0,0002.05,0000.42,0000.30
2022-12-25 16:31:00,,0825.8,5.03,0.00,22.1,22.5,00.0,30.8,24.2,15.2,0000.0,0001.32,0000.41,0000.30
2022-12-25 16:32:00,,0825.7,5.01,0.00,22.3,22.6,00.0,30.9,24.3,15.1,0000.0,0001.24,0000.40,0000.29
2022-12-25 16:33:00,,0825.7,4.95,0.00,22.3,22.2,00.0,30.9,24.3,15.1,0000.0,0001.24,0000.40,0000.30
2022-12-25 16:34:00,,0825.6,5.00,0.00,22.3,21.8,00.0,31.0,24.2,15.2,0000.0,0001.31,0000.41,0000.30
2022-12-25 16:35:00,,0825.6,5.03,0.00,22.3,21.5,00.0,31.0,24.0,15.2,0000.0,0001.33,0000.41,0000.31
2022-12-25 16:36:00,,0825.6,5.01,0.00,22.3,21.2,00.0,31.0,24.0,15.2,0000.0,0001.30,0000.40,0000.31
2022-12-25 16:37:00,,0825.6,4.97,0.00,22.2,21.1,00.0,31.0,23.9,15.5,0000.0,0000.80,0000.41,0000.31
2022-12-25 16:38:00,,0825.6,4.98,0.00,22.2,20.9,00.0,31.0,23.9,15.3,0000.0,0000.69,0000.40,0000.31
2022-12-25 16:39:00,,0825.6,5.02,0.00,22.2,20.8,00.0,31.0,23.8,15.4,0000.0,0000.68,0000.40,0000.31
2022-12-25 16:40:00,,0825.5,5.02,0.00,22.1,20.7,00.0,31.0,23.8,15.4,0000.0,0000.75,0000.42,0000.31
2022-12-25 16:41:00,,0825.4,5.00,0.00,22.1,20.6,00.0,31.0,23.7,15.6,0000.0,0000.74,0000.42,0000.31
2022-12-25 16:42:00,,0825.4,4.99,0.00,22.1,20.6,00.0,31.0,23.7,15.5,0000.0,0000.76,0000.42,0000.31
2022-12-25 16:43:00,,0825.2,4.97,0.00,22.1,20.5,00.0,31.0,23.7,15.5,0000.0,0000.80,0000.43,0000.31
2022-12-25 16:44:00,,0825.1,5.01,0.00,22.1,20.8,00.0,30.9,23.8,15.6,0000.0,0000.79,0000.43,0000.31
2022-12-25 16:45:00,,0825.2,5.02,0.00,22.2,22.0,00.0,30.9,24.1,15.5,0000.0,0000.73,0000.42,0000.31
2022-12-25 16:46:00,,0825.1,4.98,0.00,22.3,22.6,00.0,31.0,24.3,15.2,0000.0,0000.68,0000.42,0000.30
2022-12-25 16:47:00,,0825.0,4.97,0.00,22.3,22.3,00.0,31.0,24.3,15.4,0000.0,0000.65,0000.40,0000.30
2022-12-25 16:48:00,,0825.2,5.02,0.00,22.3,21.9,00.0,31.1,24.2,15.4,0000.0,0000.62,0000.38,0000.30
2022-12-25 16:49:00,,0825.2,5.02,0.00,22.3,21.6,00.0,31.1,24.1,15.3,0000.0,0000.63,0000.39,0000.30
2022-12-25 16:50:00,,0825.2,5.00,0.00,22.3,21.3,00.0,31.1,24.1,15.5,0000.0,0000.63,0000.40,0000.30
2022-12-25 16:51:00,,0825.2,4.98,0.00,22.3,21.1,00.0,31.1,24.0,15.6,0000.0,0000.59,0000.39,0000.31
2022-12-25 16:52:00,,0825.1,4.97,0.00,22.3,21.0,00.0,31.1,23.9,15.6,0000.0,0000.62,0000.40,0000.31
2022-12-25 16:53:00,,0825.2,4.98,0.00,22.2,20.8,00.0,31.1,23.9,15.5,0000.0,0001.17,0000.40,0000.31
2022-12-25 16:54:00,,0825.2,5.01,0.00,22.2,20.7,00.0,31.1,23.8,15.4,0000.0,0001.44,0000.39,0000.31
2022-12-25 16:55:00,,0825.1,5.04,0.00,22.2,20.6,00.0,31.1,23.8,15.5,0000.0,0001.52,0000.40,0000.30
2022-12-25 16:56:00,,0825.4,4.99,0.00,22.1,20.5,00.0,31.0,23.7,15.4,0000.0,0001.52,0000.40,0000.30
2022-12-25 16:57:00,,0825.2,4.98,0.00,22.1,20.5,00.0,31.0,23.7,15.5,0000.0,0001.52,0000.40,0000.30
2022-12-25 16:58:00,,0825.1,4.99,0.00,22.1,20.6,00.0,31.0,23.7,15.8,0000.0,0001.53,0000.41,0000.30
2022-12-25 16:59:00,,0825.1,5.06,0.00,22.1,21.6,00.0,31.0,24.0,15.3,0000.0,0001.56,0000.43,0000.30
